Starlink 32119

decayed
NORAD ID: 60072 Int'l Des: 2024-113 Owner: SPXS Country: US Constellation: starlink
LEOCIRCULAR
Group

About Starlink 32119

Description loading...

Altitude History

Altitude vs Time

uPlot chart will show altitude changes over time

Two-Line Element Set

1 60072U 24113P 24189.81134567 .07402585 12628-4 20752-3 0 9998
2 60072 53.1745 315.8520 0015137 320.0834 164.4019 16.43981037 3799
Epoch: Jul 7, 2024 • Age: 11644 hours

Current Status

Position data unavailable
Launch Date Jun 19, 2024
Age 1.3 years
Decay Date Jul 7, 2024
Type internet

Technical Details

Classification Payload
Mass 730.00 kg
Dry Mass 700.00 kg
Total Mass 730.00 kg
Length 0.30 m
Diameter 4.10 m
Span 29.00 m
Shape Box + pan
Manufacturer SPXS
Bus Type Starlink V2M
Phase Status Unknown Transfer Status
Owner/State SPXS/US

Large Constellations

Loading constellations...